Showing default

KUIPER-00431, 68936

Orbit data source: Space-Track

KUIPER-00431, 68936 is a payload satellite owned by Kuiper Systems (US) in LEO that was launched on Thu, 30 Apr 2026 UTC via an ARIANE 64 launch vehicle from the Air Force Eastern Test Range (AFETR). Payload-class satellites include a variety of spacecraft equipped with specific instruments for various scientific and technological missions. These include communications satellites like Starlink; space stations such as the ISS; scientific satellites like the Hubble; Earth observation satellites from companies like Planet Labs, Umbra, and HawkEye 360; GPS; miniature CubeSats for education and research; and military/defense satellites.

Loading next visibility...
Identifier
68936, 2026-098T
Orbit
LEO
Country
Flag of USUS
Related business
Manufacturer
Kuiper Systems
Mission
Operational spacecraft
Bus & Motor
KUIPER, Unknown motor
Mass
~490 kg wet, ~490 kg dry
Launch date (UTC)
2026-04-30 (6 days ago)
Launch vehicle
ARIANE 64
Launch site
Air Force Eastern Test Range (AFETR)
Object type
Payload
Rocket body
Debris
Shape & HBR
Unknown
Radar Cross Section
RCS unknown

Expand to show TLE details & history
Last TLE update: 6 hours ago

TLE from 6 hours ago
0 KUIPER-00431
1 68936U 26098T   26126.25002315  .00054327  00000-0  16868-2 0  9994
2 68936  51.8757 269.8525 0017294   5.3588  35.2309 15.32703380  1810
Epoch: 2026-05-06T06:00Z
TLE epoch observation values (Epoch: 2026-05-06T06:00:02.000Z)
Latitude
30.96588°
Longitude
-16.34504°
Altitude
459.805 km
Speed
7.646 km/s
True Right ascension
19h 51m 06s
True Declination
30° 48' 28"
Sunlit
Object was in daylight at epoch
Visualization orbit readout
Latitude
Unknown
Longitude
Unknown
Altitude
Unknown
Speed
Unknown
Apparent Right ascension
Unknown
Apparent Declination
Unknown
Sunlit
N/A
Visualization observer readout
Local Sidereal Time
19:39:48
Azimuth
Unknown
Elevation
Unknown
Doppler factor
Unknown
Orbital elements
Apogee altitude
480.056 km
Perigee altitude
456.376 km
Semi-major axis
6,846.353 km
Eccentricity
0.00173
Inclination
51.8757°
RAAN
269.8525°
Arg. of periapsis
5.3588°
True anomaly
35.34542°
Mean anomaly
35.2309°
Eccentric anomaly
35.28814°
Mean motion
3.83137 °/min
Orbital period
93.96 mins
BSTAR
0.0016868
Loading maneuver chart data...
Computing Atmospheric mass density...
Loading historical data...
Loading historical data...
Loading historical data...
Loading historical data...
Loading historical data...
Loading historical data...
Loading historical data...

Documentation

Showing up to 5 results
|